903  
ASUS44 KEWX 020411  
RWRTX  
SOUTH TEXAS REGIONAL WEATHER ROUNDUP  
NATIONAL WEATHER SERVICE AUSTIN/SAN ANTONIO TX  
1100 PM CDT SAT AUG 01 2015  
 
NOTE: "FAIR" INDICATED FEW OR NO CLOUDS BELOW 12,000 FEET WITH NO  
SIGNIFICANT WEATHER AND/OR S TO VISIBILITY
.  
 
* - THESE STATIONS ARE NOT NWS OR FAA STATIONS...AND ARE NOT SUBJECT  
TO NWS AND FAA QUALITY CONTROL.
 
 
TXZ171-172-183>190-020500-  
TEXAS HILL COUNTRY AND EDWARDS PLATEAU  
 
CITY SKY/WX TMP DP RH WIND PRES REMARKS
 
JUNCTION CLEAR 83 59 44 E6 30.00R  
*LLANO CLEAR 81 57 44 CALM 30.01R  
BURNET CLEAR 82 56 40 E3 30.00R  
*HORSESHOE BAY CLEAR 81 57 44 S3 29.98R  
*KERRVILLE CLEAR 80 59 49 CALM 30.00S  
*FREDERICKSBRG CLEAR 78 61 55 CALM 30.01R  
*ROCKSPRINGS CLEAR 81 61 50 CALM 30.06R  
*BOERNE STAGE CLEAR 72 63 73 CALM 30.00S  
*CASTROVILLE CLEAR 83 55 37 SE3 29.96S  
HONDO CLEAR 83 59 44 E7 29.96R  
*UVALDE CLEAR 84 61 45 E8 29.94S  
DEL RIO CLEAR 82 75 79 E6 29.92R  
LAUGHLIN AFB CLEAR 81 76 86 E6 29.93R  
CARRIZO SPRGS CLEAR 84 64 51 SE5 29.90S  

 
 
TXZ173-191>194-202-209-217>225-228-020500-  
CENTRAL AND SOUTH CENTRAL TEXAS  
 
CITY SKY/WX TMP DP RH WIND PRES REMARKS
 
GEORGETOWN CLEAR 84 57 39 CALM 29.95S  
AUSTIN/BERGSTM CLEAR 75 65 70 CALM 29.94R  
AUSTIN/MABRY CLEAR 86 60 41 CALM 29.95R  
*AUSTIN/EXEC CLEAR 82 63 51 CALM 29.95R  
*LAGO VISTA CLEAR 81 55 40 E5 29.99R  
SAN MARCOS CLEAR 79 61 53 E3 29.95S  
NEW BRAUNFELS CLEAR 81 61 50 SE7 29.93R  
RANDOLPH AFB CLEAR 80 60 51 E3 29.95R  
PT SAN ANTONIO CLEAR 87 59 38 E9 29.93R  
SAN ANTONIO PTCLDY 84 59 42 E8 29.95R  
STINSON FIELD CLEAR 85 60 42 E7 29.92R  
*PLEASANTON CLEAR 83 57 41 E5 29.93R  
*LA GRANGE CLEAR 80 70 72 CALM 29.91S  
*GIDDINGS CLEAR 76 65 68 CALM 29.98R  
*GONZALES CLOUDY 83 63 50 SE6 29.93R  

 
 
TXZ163>164-176>182-195>201-210>213-226-227-235-020500-  
SOUTHEAST TEXAS  
 
CITY SKY/WX TMP DP RH WIND PRES REMARKS
 
COLLEGE STN CLEAR 84 61 45 E5 29.94R  
*BRYAN CLEAR 80 60 50 E3 29.95R  
*CALDWELL CLEAR 79 63 57 CALM 29.97R  
*CROCKETT CLOUDY 75 68 78 CALM 29.97S  
*BRENHAM CLEAR 81 66 61 CALM 29.94R  
HUNTSVILLE CLEAR 79 63 57 CALM 29.93F  
CONROE CLEAR 72 64 76 CALM 29.93S  
HOUSTON BUSH CLEAR 79 65 62 CALM 29.91S  
HOUSTON HOBBY PTCLDY 82 69 64 S3 29.90S  
*HOUSTON SW AP CLEAR 77 68 73 CALM 29.92S  
PEARLAND CLEAR 81 69 67 CALM 29.92S  
HOUSTON HOOKS CLEAR 77 66 68 NW3 29.92S  
ELLINGTON FLD PTCLDY 84 64 51 CALM 29.92S  
SUGAR LAND CLEAR 79 67 66 CALM 29.91S  
*HOUSTON EXEC CLEAR 81 64 57 NE3 29.93S  
*CLEVELAND MUN CLEAR 73 69 87 CALM 29.92F  
*WHARTON CLEAR 78 69 73 CALM 29.93S  
*COLUMBUS FAIR 76 66 71 CALM 29.92R  
*EAGLE LAKE CLEAR 79 64 59 S3 29.92S  

 
 
TXZ214>216-236>238-020500-  
THE UPPER TEXAS COAST  
 
CITY SKY/WX TMP DP RH WIND PRES REMARKS
 
*ORANGE CLEAR 73 63 71 CALM 29.93S  
PORT ARTHUR CLEAR 76 71 85 CALM 29.91R  
GALVESTON CLEAR 86 70 58 CALM 29.92S HX 90  
ANGLETON CLEAR 77 73 87 CALM 29.91S  
*BAY CITY CLEAR 79 74 85 CALM 29.91S  
PALACIOS CLEAR 82 76 81 SE6 29.91R  

 
 
TXZ229>234-239>247-020500-  
TEXAS COASTAL BEND AND RIO GRANDE PLAINS  
 
CITY SKY/WX TMP DP RH WIND PRES REMARKS
 
VICTORIA CLEAR 80 73 79 CALM 29.93R  
*BEEVILLE CLEAR 78 73 83 SE3 29.93S  
ROCKPORT PTCLDY 84 76 76 SE9 29.91R HX 93  
*PORT ARANSAS CLEAR 83 78 84 SE5 29.91S HX 93  
*PORT LAVACA CLEAR 81 75 83 S3 29.92S  
*INGLESIDE PTCLDY 83 76 80 SE6 29.91S HX 91  
CORPUS CHRISTI MOCLDY 81 73 76 SE8 29.92R  
CORPUS NAS PTCLDY 82 76 81 SE7 29.91R  
*ROBSTOWN PTCLDY 81 75 80 SE3 29.92S  
ALICE PTCLDY 79 71 76 E3 29.92R  
KINGSVILLE NAS PTCLDY 80 76 87 E3 29.92R  
COTULLA CLEAR 88 65 46 E7 29.91R HX 90  
*FAITH RANCH CLEAR 88 61 40 SE8 29.92R  
LAREDO CLEAR 88 67 49 SE15 29.93R HX 91  

 
 
TXZ248>255-020500-  
DEEP SOUTH TEXAS  
 
CITY SKY/WX TMP DP RH WIND PRES REMARKS
 
BROWNSVILLE PTCLDY 79 74 84 S5 29.93R  
PORT ISABEL PTCLDY 79 73 82 S5 29.92R  
*SOUTH PADRE PTCLDY 81 75 83 SW7 29.93R  
HARLINGEN CLEAR 78 72 81 S7 29.91S  
*HEBBRONVILLE N/A 80 64 58 SE5 29.94S  
MCALLEN CLEAR 83 72 69 S8 29.93R  
*WESLACO CLEAR 80 70 71 S7 29.93R  
FALFURRIAS PTCLDY 79 68 70 CALM 29.92R  
EDINBURG PTCLDY 79 71 75 S6 29.92S  
*ZAPATA PTCLDY 86 61 42 SE7 29.92R  

 
 
TXZ213>215-236>238-242>244-246-247-251-254-255-020500-  
CMAN STATIONS  
 
STATION/POSITION TIME TEMP WIND PRES WAVE
 
AIR SEA DIR/SP/G HT/PER  
(UTC) (F) (DEG/KT/KT) (MB) (FT/S)  

 
 
GMZ080-GMZ150>470-020500-  
OFFSHORE BUOY REPORTS  
 
STATION/POSITION TIME TEMP WIND PRES WAVE
 
AIR SEA DIR/SP/G HT/PER  
(UTC) (F) (DEG/KT/KT) (MB) (FT/S)  

 
 
CLICK HERE TO GO TO PREVIOUS BULLETINS.

The Nexlab TX Page Main Text Page